Humidity-temperature Sensor

Selected Measurement Type: Relative Humidity

 
Relative Humidity [%]     6 entries per hour
Showing data from 4/12/2021 (19:00:00 Z) to 4/9/2021 (00:01:00 Z)
Previous Next [ Day | 3-Days | 7-Days ]
First Last
Prev [ Day | 3-Days | 7-Days ] Next
First Last

Start Time:     :
End Time:     :     
Time (in GMT) :00 :50 :40 :30 :20 :10
Previous Next [ Day | 3-Days | 7-Days ]
First Last
Prev [ Day | 3-Days | 7-Days ] Next
First Last


123 => good data
MM => data is determined as missing
-- => data not received/configured
Back to Top Back to Top
4/12/2021 19:00 to 18:10 81.24 81.61 81.43 81.90 81.78 82.37
4/12/2021 18:00 to 17:10 82.13 82.42 82.60 82.17 82.02 82.21
4/12/2021 17:00 to 16:10 82.17 82.09 82.66 83.53 84.02 84.20
4/12/2021 16:00 to 15:10 84.68 84.80 84.31 84.12 84.31 84.96
4/12/2021 15:00 to 14:10 84.96 85.05 84.96 84.76 84.06 83.59
4/12/2021 14:00 to 13:10 81.80 80.87 80.26 80.38 80.92 82.13
4/12/2021 13:00 to 12:10 82.64 83.26 83.55 83.65 83.44 83.63
4/12/2021 12:00 to 11:10 84.20 84.33 83.42 81.39 80.40 81.74
4/12/2021 11:00 to 10:10 81.35 80.79 81.12 82.05 82.39 81.39
4/12/2021 10:00 to 9:10 81.37 81.96 82.79 82.95 82.66 82.74
4/12/2021 09:00 to 8:10 83.24 83.53 83.61 83.42 83.42 83.48
4/12/2021 08:00 to 7:10 83.77 83.69 83.75 84.18 84.43 84.20
4/12/2021 07:00 to 6:10 84.59 84.45 84.53 84.66 84.70 84.78
4/12/2021 06:00 to 5:10 85.00 84.61 84.41 84.12 83.92 83.85
4/12/2021 05:00 to 4:10 83.61 83.26 83.24 83.34 83.44 83.36
4/12/2021 04:00 to 3:10 83.24 83.46 83.73 84.00 83.96 84.00
4/12/2021 03:00 to 2:10 84.20 83.89 83.55 83.30 82.95 82.56
4/12/2021 02:00 to 1:10 82.29 82.05 81.86 81.53 81.04 80.44
4/12/2021 01:00 to 0:10 80.13 80.03 79.54 78.74 77.38 75.74
4/12/2021 00:00 to 23:10 73.99 72.80 72.37 73.62 75.06 78.39
4/11/2021 23:00 to 22:10 80.05 80.57 80.85 80.55 79.91 79.72
4/11/2021 22:00 to 21:10 79.81 79.21 79.17 78.82 77.92 77.81
4/11/2021 21:00 to 20:10 77.77 77.36 77.05 77.13 78.20 81.92
4/11/2021 20:00 to 19:10 84.02 86.13 87.72 89.01 89.77 90.41
4/11/2021 19:00 to 18:10 91.19 91.19 91.25 91.56 92.11 93.22
4/11/2021 18:00 to 17:10 94.19 94.81 94.97 95.71 96.33 97.07
4/11/2021 17:00 to 16:10 97.03 96.84 96.70 96.64 96.45 95.90
4/11/2021 16:00 to 15:10 94.66 93.22 91.56 91.77 92.18 92.55
4/11/2021 15:00 to 14:10 92.67 91.70 90.22 89.38 89.46 89.50
4/11/2021 14:00 to 13:10 89.55 89.65 89.65 89.53 89.42 89.42
4/11/2021 13:00 to 12:10 89.73 90.12 90.53 90.45 90.39 90.24
4/11/2021 12:00 to 11:10 90.18 90.20 90.24 90.24 90.29 90.35
4/11/2021 11:00 to 10:10 90.39 90.33 90.45 90.43 90.47 90.61
4/11/2021 10:00 to 9:10 90.66 90.78 90.68 90.66 90.57 90.39
4/11/2021 09:00 to 8:10 90.22 89.85 89.77 89.38 89.18 89.30
4/11/2021 08:00 to 7:10 89.30 89.11 89.03 88.81 88.77 88.60
4/11/2021 07:00 to 6:10 88.60 88.46 88.29 88.11 87.98 87.78
4/11/2021 06:00 to 5:10 87.63 87.59 87.66 87.57 87.49 87.26
4/11/2021 05:00 to 4:10 87.29 87.12 86.92 86.77 86.81 86.79
4/11/2021 04:00 to 3:10 86.75 86.77 86.92 87.12 87.14 86.96
4/11/2021 03:00 to 2:10 86.77 86.77 86.63 86.34 86.20 86.34
4/11/2021 02:00 to 1:10 86.63 86.83 86.55 86.05 85.17 84.35
4/11/2021 01:00 to 0:10 83.94 83.46 83.42 83.07 82.39 81.86
4/11/2021 00:00 to 23:10 81.24 81.61 82.42 83.34 82.58 82.37
4/10/2021 23:00 to 22:10 82.83 83.32 84.00 84.06 83.05 82.13
4/10/2021 22:00 to 21:10 82.44 83.36 83.71 84.41 84.76 85.21
4/10/2021 21:00 to 20:10 85.58 85.85 84.68 83.69 84.76 85.99
4/10/2021 20:00 to 19:10 86.77 86.96 87.76 89.24 91.11 92.18
4/10/2021 19:00 to 18:10 92.30 92.07 91.44 91.17 90.59 91.09
4/10/2021 18:00 to 17:10 91.54 92.14 92.48 92.50 92.48 92.50
4/10/2021 17:00 to 16:10 92.05 91.62 91.62 91.00 90.22 90.14
4/10/2021 16:00 to 15:10 90.31 90.24 90.43 90.66 90.72 90.63
4/10/2021 15:00 to 14:10 90.72 90.78 91.00 91.15 91.50 91.27
4/10/2021 14:00 to 13:10 90.68 89.81 89.53 89.90 89.90 90.14
4/10/2021 13:00 to 12:10 90.31 90.37 90.35 90.20 90.00 89.90
4/10/2021 12:00 to 11:10 89.83 89.77 89.87 89.83 89.94 89.98
4/10/2021 11:00 to 10:10 90.08 90.27 90.59 90.63 90.66 90.88
4/10/2021 10:00 to 9:10 91.21 91.23 91.29 91.42 91.81 92.28
4/10/2021 09:00 to 8:10 92.14 91.09 90.08 88.37 88.23 87.53
4/10/2021 08:00 to 7:10 87.22 86.85 86.73 86.73 86.83 86.75
4/10/2021 07:00 to 6:10 86.73 86.77 86.61 86.55 86.40 86.26
4/10/2021 06:00 to 5:10 86.03 85.99 85.97 86.03 85.85 85.66
4/10/2021 05:00 to 4:10 85.58 85.52 85.37 84.94 85.07 85.03
4/10/2021 04:00 to 3:10 84.94 85.03 84.88 84.45 84.55 84.80
4/10/2021 03:00 to 2:10 84.88 84.74 85.42 85.19 84.51 84.43
4/10/2021 02:00 to 1:10 84.10 84.94 86.44 87.20 87.68 87.57
4/10/2021 01:00 to 0:10 87.43 87.88 88.79 90.29 91.09 91.58
4/10/2021 00:00 to 23:10 91.42 91.17 90.86 90.57 89.55 88.17
4/9/2021 23:00 to 22:10 87.29 88.62 88.99 89.59 90.06 91.00
4/9/2021 22:00 to 21:10 92.14 92.73 93.41 93.39 93.06 91.87
4/9/2021 21:00 to 20:10 89.73 88.66 89.75 89.30 88.46 87.76
4/9/2021 20:00 to 19:10 87.04 86.90 87.94 88.87 88.99 87.45
4/9/2021 19:00 to 18:10 85.44 85.50 86.09 86.24 85.76 85.81
4/9/2021 18:00 to 17:10 86.11 86.57 86.73 87.43 87.96 88.21
4/9/2021 17:00 to 16:10 87.35 85.21 84.61 85.09 88.27 88.11
4/9/2021 16:00 to 15:10 88.11 90.04 91.56 92.61 92.71 92.16
4/9/2021 15:00 to 14:10 91.89 91.15 90.18 90.31 90.59 91.68
4/9/2021 14:00 to 13:10 92.57 92.67 93.49 94.52 95.71 95.71
4/9/2021 13:00 to 12:10 95.67 95.96 96.04 96.06 96.27 96.70
4/9/2021 12:00 to 11:10 97.31 97.60 97.99 98.30 98.51 98.69
4/9/2021 11:00 to 10:10 98.53 98.96 98.85 99.20 99.20 99.37
4/9/2021 10:00 to 9:10 99.22 98.98 99.45 99.61 99.61 99.70
4/9/2021 09:00 to 8:10 99.66 99.90 99.72 99.47 99.72 99.76
4/9/2021 08:00 to 7:10 99.76 99.45 99.98 99.37 98.73 98.71
4/9/2021 07:00 to 6:10 98.61 98.61 98.75 98.94 99.20 99.39
4/9/2021 06:00 to 5:10 99.16 99.33 99.18 99.12 99.04 98.77
4/9/2021 05:00 to 4:10 98.69 98.40 97.97 97.64 96.92 96.53
4/9/2021 04:00 to 3:10 96.12 95.59 94.91 94.46 94.33 93.53
4/9/2021 03:00 to 2:10 93.27 93.94 93.74 93.88 93.70 93.45
4/9/2021 02:00 to 1:10 93.12 92.94 92.67 92.94 93.53 93.76
4/9/2021 01:00 to 0:10 94.03 94.03 94.56 95.92 96.29 96.88